Weather History for Sioux Falls, SD

Change the Weather History Date:

Sunday, February 5, 2012

  Actual Average Record
Temperature  
Mean Temperature 29 °F 19 °F  
Max Temperature 38 °F 29 °F 59 °F (1963)
Min Temperature 20 °F 9 °F -28 °F (1899)
Degree Days  
Heating Degree Days 36 46  
Month to date heating degree days 158 234  
Since 1 July heating degree days 4049 4866  
Cooling Degree Days 0 0  
Month to date cooling degree days 0 0  
Year to date cooling degree days 0 0  
Moisture  
Dew Point 25 °F    
Average Humidity 82    
Maximum Humidity 100    
Minimum Humidity 64    
Precipitation  
Precipitation 0.00 in 0.02 in 1.10 in (1911)
Month to date precipitation 0.00 0.09  
Year to date precipitation 0.75 0.65  
Snow  
Snow 0.00 in 0.30 in 8.00 in (1915)
Month to date snowfall 0.0 1.3  
Since 1 July snowfall 8.7 25.9  
Snow Depth 0.00 in    
Sea Level Pressure  
Sea Level Pressure 30.36 in    
Wind  
Wind Speed 6 mph (WNW)    
Max Wind Speed 14 mph    
Max Gust Speed 16 mph    
Visibility 6 miles    
Events Fog    
T = Trace of Precipitation, MM = Missing Value Source: NWS Daily Summary

Daily Weather History Graph

Daily Weather History Graph

Search for Another Location

Airport:

Trip Planner

Search our weather history database for the weather conditions in past years. The results will help you decide how hot, cold, wet, or windy it might be!

Date:

Astronomy

Feb. 05, 2012 Rise Set
Actual Time 7:39 AM CST 5:43 PM CST
Civil Twilight 7:09 AM CST 6:13 PM CST
Nautical Twilight 6:35 AM CST 6:47 PM CST
Astronomical Twilight 6:01 AM CST 7:20 PM CST
Moon 3:40 PM CST (2/5) 5:53 AM CST (2/5)
Length of Visible Light 11h 04m
Length of Day
10h 03m
Waxing Gibbous, 95% of the Moon is Illuminated
Feb 5
Waxing Gibbous
Feb 7
Full
Feb 14
Last Quarter
Feb 21
New
Feb 29
First Quarter

Hourly Weather History & Observations

Time (CST) Temp. Windchill Dew Point Humidity Pressure Visibility Wind Dir Wind Speed Gust Speed Precip Events Conditions
12:00 AM 24.8 °F 14.6 °F 24.8 °F 100% 30.38 in 5.0 mi NNW 10.4 mph - N/A   Overcast
12:56 AM 26.1 °F 15.6 °F 24.1 °F 92% 30.43 in 4.0 mi NNW 11.5 mph - N/A   Overcast
1:49 AM 26.6 °F 16.2 °F 24.8 °F 93% 30.37 in 2.5 mi NNW 11.5 mph - N/A   Overcast
1:56 AM 26.1 °F 16.8 °F 25.0 °F 96% 30.42 in 2.5 mi NW 9.2 mph - N/A   Overcast
2:56 AM 26.1 °F 16.2 °F 25.0 °F 96% 30.42 in 3.0 mi NNW 10.4 mph - N/A   Overcast
3:56 AM 26.1 °F 16.2 °F 25.0 °F 96% 30.41 in 2.5 mi NNW 10.4 mph - N/A   Overcast
4:37 AM 26.6 °F 19.1 °F 24.8 °F 93% 30.36 in 1.8 mi NNW 6.9 mph - N/A   Overcast
4:42 AM 26.6 °F 19.1 °F 24.8 °F 93% 30.36 in 0.8 mi NNW 6.9 mph - N/A   Overcast
4:56 AM 26.1 °F 19.4 °F 25.0 °F 96% 30.41 in 1.0 mi NNW 5.8 mph - N/A   Overcast
5:56 AM 25.0 °F 16.3 °F 24.1 °F 96% 30.42 in 1.5 mi NW 8.1 mph - N/A   Overcast
6:56 AM 25.0 °F 18.1 °F 24.1 °F 96% 30.42 in 1.5 mi WNW 5.8 mph - N/A   Overcast
7:56 AM 25.0 °F 17.1 °F 24.1 °F 96% 30.43 in 1.0 mi NNW 6.9 mph - N/A   Overcast
8:41 AM 24.8 °F 17.9 °F 24.8 °F 100% 30.37 in 2.0 mi NW 5.8 mph - N/A   Overcast
8:56 AM 25.0 °F 18.1 °F 24.1 °F 96% 30.44 in 3.0 mi WNW 5.8 mph - N/A   Overcast
9:56 AM 26.1 °F 19.4 °F 24.1 °F 92% 30.44 in 4.0 mi WNW 5.8 mph - N/A   Overcast
10:56 AM 27.0 °F 20.5 °F 25.0 °F 92% 30.44 in 6.0 mi Variable 5.8 mph - N/A   Overcast
11:44 AM 28.4 °F 21.2 °F 24.8 °F 86% 30.36 in 6.0 mi NW 6.9 mph - N/A   Overcast
11:56 AM 28.0 °F 22.8 °F 25.0 °F 88% 30.42 in 6.0 mi West 4.6 mph - N/A   Overcast
12:56 PM 30.9 °F 26.2 °F 25.0 °F 79% 30.40 in 10.0 mi WSW 4.6 mph - N/A   Mostly Cloudy
1:10 PM 33.8 °F 29.6 °F 26.6 °F 75% 30.33 in 10.0 mi Variable 4.6 mph - N/A   Scattered Clouds
1:56 PM 35.1 °F 29.3 °F 27.0 °F 72% 30.38 in 10.0 mi West 6.9 mph - N/A   Clear
2:56 PM 37.0 °F 31.6 °F 27.0 °F 67% 30.35 in 10.0 mi WNW 6.9 mph - N/A   Clear
3:56 PM 37.0 °F 31.6 °F 27.0 °F 67% 30.34 in 10.0 mi West 6.9 mph - N/A   Clear
4:56 PM 36.0 °F 32.1 °F 27.0 °F 70% 30.34 in 10.0 mi West 4.6 mph - N/A   Clear
5:56 PM 33.1 °F 30.0 °F 26.1 °F 75% 30.35 in 10.0 mi WSW 3.5 mph - N/A   Clear
6:56 PM 28.0 °F - 24.1 °F 85% 30.34 in 10.0 mi Calm Calm - N/A   Clear
7:56 PM 27.0 °F - 24.1 °F 89% 30.33 in 10.0 mi Calm Calm - N/A   Clear
8:56 PM 26.1 °F - 23.0 °F 88% 30.32 in 10.0 mi Calm Calm - N/A   Clear
9:56 PM 27.0 °F 21.6 °F 24.1 °F 89% 30.31 in 10.0 mi SW 4.6 mph - N/A   Clear
10:56 PM 26.1 °F 21.9 °F 24.1 °F 92% 30.29 in 10.0 mi SW 3.5 mph - N/A   Clear
11:31 PM 24.8 °F - 21.2 °F 86% 30.22 in 9.0 mi Calm Calm - N/A Fog Patches of Fog
11:56 PM 21.9 °F 17.2 °F 19.9 °F 92% 30.28 in 3.0 mi SSW 3.5 mph - N/A   Scattered Clouds
11:59 PM 21.2 °F 16.4 °F 21.2 °F 100% 30.22 in 0.5 mi SSW 3.5 mph - N/A Fog Light Freezing Fog